| time (UTC) | temp F | wind direction | speed knots | gust knots | rain 1hr in | rain 24hr in | rain mn in | humidity % | barometer mb |
| 20260506222626 | 77 | 265 | 3.5 | 6.1 | 0.00 | 0.00 | 0.00 | 31 | 1012.1 |
| 20260506222122 | 78 | 295 | 2.6 | 7.8 | 0.00 | 0.00 | 0.00 | 30 | 1012.3 |
| 20260506221620 | 78 | 337 | 2.6 | 4.3 | 0.00 | 0.00 | 0.00 | 31 | 1012.3 |
| 20260506221118 | 78 | 286 | 2.6 | 7.8 | 0.00 | 0.00 | 0.00 | 30 | 1012.0 |
| 20260506220614 | 77 | 308 | 1.7 | 5.2 | 0.00 | 0.00 | 0.00 | 34 | 1012.3 |
| 20260506220109 | 78 | 325 | 2.6 | 4.3 | 0.00 | 0.00 | 0.00 | 33 | 1011.9 |
| 20260506215606 | 79 | 290 | 1.7 | 5.2 | 0.00 | 0.00 | 0.00 | 32 | 1012.1 |
| 20260506215102 | 79 | 355 | 2.6 | 4.3 | 0.00 | 0.00 | 0.00 | 32 | 1012.2 |
| 20260506214559 | 79 | 327 | 3.5 | 6.1 | 0.00 | 0.00 | 0.00 | 32 | 1012.4 |
| 20260506214056 | 79 | 285 | 2.6 | 6.1 | 0.00 | 0.00 | 0.00 | 33 | 1012.1 |
| 20260506213554 | 79 | 282 | 1.7 | 4.3 | 0.00 | 0.00 | 0.00 | 32 | 1012.2 |
| 20260506213051 | 80 | 359 | 0.0 | 6.1 | 0.00 | 0.00 | 0.00 | 31 | 1012.1 |
| 20260506212548 | 79 | 8 | 2.6 | 5.2 | 0.00 | 0.00 | 0.00 | 34 | 1012.2 |
| 20260506212043 | 79 | 231 | 3.5 | 7.8 | 0.00 | 0.00 | 0.00 | 31 | 1012.3 |
| 20260506211539 | 80 | 333 | 1.7 | 4.3 | 0.00 | 0.00 | 0.00 | 32 | 1012.4 |
| 20260506211036 | 80 | 340 | 1.7 | 4.3 | 0.00 | 0.00 | 0.00 | 31 | 1012.2 |
| 20260506210533 | 80 | 353 | 0.9 | 3.5 | 0.00 | 0.00 | 0.00 | 31 | 1012.2 |
| 20260506210029 | 81 | 348 | 2.6 | 2.6 | 0.00 | 0.00 | 0.00 | 31 | 1012.2 |
| 20260506205526 | 81 | 24 | 0.9 | 3.5 | 0.00 | 0.00 | 0.00 | 31 | 1012.3 |
| 20260506205021 | 80 | 239 | 1.7 | 4.3 | 0.00 | 0.00 | 0.00 | 33 | 1012.1 |
| 20260506204520 | 81 | 314 | 1.7 | 3.5 | 0.00 | 0.00 | 0.00 | 31 | 1012.2 |
| 20260506204016 | 81 | 337 | 1.7 | 2.6 | 0.00 | 0.00 | 0.00 | 30 | 1012.3 |
| 20260506203515 | 82 | 311 | 2.6 | 3.5 | 0.00 | 0.00 | 0.00 | 30 | 1012.2 |
| 20260506203011 | 80 | 306 | 2.6 | 6.1 | 0.00 | 0.00 | 0.00 | 30 | 1012.3 |
| 20260506202508 | 79 | 126 | 0.0 | 9.6 | 0.00 | 0.00 | 0.00 | 32 | 1012.4 |
| 20260506202004 | 80 | 339 | 1.7 | 7.8 | 0.00 | 0.00 | 0.00 | 32 | 1012.4 |
| 20260506201502 | 81 | 271 | 4.3 | 8.7 | 0.00 | 0.00 | 0.00 | 31 | 1012.1 |
| 20260506200958 | 82 | 49 | 1.7 | 3.5 | 0.00 | 0.00 | 0.00 | 32 | 1012.5 |
| 20260506200454 | 81 | 233 | 4.3 | 5.2 | 0.00 | 0.00 | 0.00 | 31 | 1012.3 |
| 20260506195945 | 82 | 351 | 2.6 | 4.3 | 0.00 | 0.00 | 0.00 | 32 | 1012.4 |
| 20260506195442 | 82 | 352 | 5.2 | 5.2 | 0.00 | 0.00 | 0.00 | 32 | 1012.3 |
| 20260506194939 | 81 | 9 | 0.9 | 4.3 | 0.00 | 0.00 | 0.00 | 31 | 1012.3 |
| 20260506194436 | 82 | 315 | 0.9 | 3.5 | 0.00 | 0.00 | 0.00 | 32 | 1012.5 |
| 20260506193933 | 82 | 13 | 0.9 | 7.8 | 0.00 | 0.00 | 0.00 | 33 | 1012.5 |
| 20260506193430 | 81 | 346 | 1.7 | 5.2 | 0.00 | 0.00 | 0.00 | 33 | 1012.4 |
| 20260506192927 | 80 | 314 | 1.7 | 4.3 | 0.00 | 0.00 | 0.00 | 33 | 1012.5 |
| 20260506192424 | 80 | 316 | 1.7 | 5.2 | 0.00 | 0.00 | 0.00 | 32 | 1012.5 |
| 20260506191920 | 80 | 76 | 2.6 | 5.2 | 0.00 | 0.00 | 0.00 | 33 | 1012.7 |
| 20260506191416 | 80 | 246 | 1.7 | 3.5 | 0.00 | 0.00 | 0.00 | 35 | 1012.8 |
| 20260506190914 | 79 | 257 | 1.7 | 3.5 | 0.00 | 0.00 | 0.00 | 37 | 1012.6 |
| 20260506190410 | 78 | 12 | 1.7 | 10.4 | 0.00 | 0.00 | 0.00 | 36 | 1012.7 |
| 20260506185907 | 79 | 199 | 1.7 | 5.2 | 0.00 | 0.00 | 0.00 | 34 | 1012.9 |
| 20260506185405 | 79 | 357 | 1.7 | 4.3 | 0.00 | 0.00 | 0.00 | 36 | 1012.5 |
| 20260506184902 | 78 | 34 | 2.6 | 6.1 | 0.00 | 0.00 | 0.00 | 34 | 1012.8 |
| 20260506184358 | 79 | 337 | 1.7 | 6.1 | 0.00 | 0.00 | 0.00 | 34 | 1012.7 |
| 20260506183856 | 80 | 328 | 2.6 | 6.1 | 0.00 | 0.00 | 0.00 | 34 | 1012.6 |
| 20260506183356 | 79 | 298 | 2.6 | 12.2 | 0.00 | 0.00 | 0.00 | 35 | 1012.7 |
| 20260506182854 | 79 | 315 | 1.7 | 4.3 | 0.00 | 0.00 | 0.00 | 36 | 1012.7 |
| 20260506182350 | 77 | 1 | 0.0 | 3.5 | 0.00 | 0.00 | 0.00 | 38 | 1012.6 |
| 20260506181843 | 77 | 351 | 1.7 | 4.3 | 0.00 | 0.00 | 0.00 | 38 | 1012.7 |
| 20260506181341 | 76 | 307 | 2.6 | 3.5 | 0.00 | 0.00 | 0.00 | 38 | 1013.0 |
| 20260506180837 | 77 | 352 | 1.7 | 4.3 | 0.00 | 0.00 | 0.00 | 38 | 1012.8 |
| 20260506180333 | 77 | 265 | 1.7 | 3.5 | 0.00 | 0.00 | 0.00 | 38 | 1012.5 |
| 20260506175829 | 77 | 329 | 1.7 | 3.5 | 0.00 | 0.00 | 0.00 | 37 | 1012.7 |
| 20260506175326 | 77 | 337 | 2.6 | 2.6 | 0.00 | 0.00 | 0.00 | 37 | 1012.7 |
| 20260506174823 | 78 | 350 | 1.7 | 10.4 | 0.00 | 0.00 | 0.00 | 35 | 1012.6 |
| 20260506174321 | 78 | 81 | 1.7 | 6.1 | 0.00 | 0.00 | 0.00 | 34 | 1012.5 |
| 20260506173818 | 78 | 324 | 2.6 | 9.6 | 0.00 | 0.00 | 0.00 | 34 | 1012.7 |
| 20260506173315 | 78 | 343 | 1.7 | 7.0 | 0.00 | 0.00 | 0.00 | 34 | 1012.8 |
| 20260506172812 | 79 | 315 | 1.7 | 4.3 | 0.00 | 0.00 | 0.00 | 34 | 1012.9 |
| 20260506172308 | 78 | 338 | 2.6 | 5.2 | 0.00 | 0.00 | 0.00 | 34 | 1012.6 |
| 20260506171806 | 78 | 295 | 3.5 | 5.2 | 0.00 | 0.00 | 0.00 | 34 | 1012.6 |
| 20260506171303 | 78 | 331 | 0.0 | 4.3 | 0.00 | 0.00 | 0.00 | 34 | 1012.9 |
| 20260506170800 | 78 | 345 | 2.6 | 3.5 | 0.00 | 0.00 | 0.00 | 33 | 1012.6 |
| 20260506170256 | 77 | 312 | 2.6 | 3.5 | 0.00 | 0.00 | 0.00 | 37 | 1013.2 |
| 20260506165755 | 77 | 346 | 0.9 | 3.5 | 0.00 | 0.00 | 0.00 | 36 | 1012.9 |
| 20260506165252 | 76 | 346 | 1.7 | 5.2 | 0.00 | 0.00 | 0.00 | 38 | 1013.0 |
| 20260506164749 | 76 | 306 | 2.6 | 5.2 | 0.00 | 0.00 | 0.00 | 39 | 1012.9 |
| 20260506164246 | 75 | 68 | 0.9 | 7.0 | 0.00 | 0.00 | 0.00 | 40 | 1013.0 |
| 20260506163738 | 74 | 293 | 2.6 | 4.3 | 0.00 | 0.00 | 0.00 | 36 | 1013.0 |
| 20260506163232 | 74 | 248 | 1.7 | 3.5 | 0.00 | 0.00 | 0.00 | 40 | 1013.3 |
| 20260506162728 | 73 | 309 | 1.7 | 4.3 | 0.00 | 0.00 | 0.00 | 40 | 1012.9 |
| 20260506162226 | 73 | 291 | 1.7 | 3.5 | 0.00 | 0.00 | 0.00 | 40 | 1013.2 |
| 20260506161718 | 72 | 316 | 2.6 | 3.5 | 0.00 | 0.00 | 0.00 | 42 | 1013.0 |
| 20260506161215 | 72 | 332 | 1.7 | 5.2 | 0.00 | 0.00 | 0.00 | 43 | 1013.3 |
| 20260506160712 | 72 | 242 | 1.7 | 5.2 | 0.00 | 0.00 | 0.00 | 43 | 1013.2 |
| 20260506160208 | 71 | 293 | 2.6 | 5.2 | 0.00 | 0.00 | 0.00 | 43 | 1013.4 |
| 20260506155707 | 71 | 352 | 1.7 | 7.8 | 0.00 | 0.00 | 0.00 | 45 | 1013.4 |
| 20260506155204 | 69 | 300 | 0.9 | 3.5 | 0.00 | 0.00 | 0.00 | 45 | 1013.6 |
| 20260506153306 | 68 | 263 | 1.7 | 4.3 | 0.00 | 0.00 | 0.00 | 44 | 1013.5 |
| 20260506152803 | 68 | 262 | 1.7 | 2.6 | 0.00 | 0.00 | 0.00 | 46 | 1013.3 |
| 20260506152300 | 67 | 333 | 0.0 | 3.5 | 0.00 | 0.00 | 0.00 | 47 | 1013.5 |
| 20260506151759 | 66 | 275 | 1.7 | 3.5 | 0.00 | 0.00 | 0.00 | 46 | 1013.6 |
| 20260506151255 | 66 | 255 | 3.5 | 4.3 | 0.00 | 0.00 | 0.00 | 46 | 1013.7 |
| 20260506150752 | 65 | 260 | 2.6 | 4.3 | 0.00 | 0.00 | 0.00 | 48 | 1013.6 |
| 20260506150249 | 64 | 251 | 2.6 | 3.5 | 0.00 | 0.00 | 0.00 | 49 | 1013.6 |
| 20260506145746 | 63 | 261 | 1.7 | 2.6 | 0.00 | 0.00 | 0.00 | 49 | 1013.6 |
| 20260506145242 | 63 | 268 | 1.7 | 3.5 | 0.00 | 0.00 | 0.00 | 49 | 1013.8 |
| 20260506144740 | 62 | 317 | 1.7 | 3.5 | 0.00 | 0.00 | 0.00 | 49 | 1013.7 |
| 20260506144237 | 62 | 286 | 2.6 | 3.5 | 0.00 | 0.00 | 0.00 | 50 | 1013.8 |
| 20260506143734 | 62 | 155 | 2.6 | 6.1 | 0.00 | 0.00 | 0.00 | 50 | 1013.9 |
| 20260506143231 | 61 | 347 | 0.9 | 9.6 | 0.00 | 0.00 | 0.00 | 49 | 1013.8 |
| 20260506142730 | 61 | 340 | 1.7 | 5.2 | 0.00 | 0.00 | 0.00 | 49 | 1013.8 |
| 20260506142228 | 61 | 320 | 5.2 | 7.0 | 0.00 | 0.00 | 0.00 | 50 | 1014.0 |
| 20260506141725 | 61 | 32 | 4.3 | 6.1 | 0.00 | 0.00 | 0.00 | 52 | 1013.8 |
| 20260506141224 | 61 | 229 | 5.2 | 11.3 | 0.00 | 0.00 | 0.00 | 49 | 1013.8 |
| 20260506140721 | 61 | 7 | 3.5 | 6.1 | 0.00 | 0.00 | 0.00 | 52 | 1013.7 |
| 20260506140218 | 61 | 354 | 1.7 | 3.5 | 0.00 | 0.00 | 0.00 | 51 | 1014.0 |
| 20260506135714 | 61 | 296 | 0.0 | 7.0 | 0.00 | 0.00 | 0.00 | 49 | 1013.7 |
| 20260506135211 | 61 | 25 | 2.6 | 7.0 | 0.00 | 0.00 | 0.00 | 49 | 1013.7 |
| 20260506134708 | 61 | 289 | 1.7 | 7.0 | 0.00 | 0.00 | 0.00 | 50 | 1013.8 |
| 20260506134204 | 60 | 0 | 1.7 | 6.1 | 0.00 | 0.00 | 0.00 | 51 | 1013.9 |
| 20260506133701 | 59 | 35 | 3.5 | 7.0 | 0.00 | 0.00 | 0.00 | 52 | 1013.8 |
| 20260506133157 | 59 | 69 | 1.7 | 3.5 | 0.00 | 0.00 | 0.00 | 52 | 1013.9 |
| 20260506132655 | 59 | 321 | 1.7 | 3.5 | 0.00 | 0.00 | 0.00 | 55 | 1013.7 |
| 20260506132152 | 60 | 263 | 0.0 | 6.1 | 0.00 | 0.00 | 0.00 | 51 | 1013.9 |
| 20260506131649 | 59 | 330 | 1.7 | 6.1 | 0.00 | 0.00 | 0.00 | 51 | 1013.6 |
| 20260506131145 | 57 | 351 | 2.6 | 4.3 | 0.00 | 0.00 | 0.00 | 56 | 1013.6 |
| 20260506130642 | 57 | 356 | 1.7 | 3.5 | 0.00 | 0.00 | 0.00 | 58 | 1013.8 |
| 20260506130140 | 57 | 5 | 1.7 | 3.5 | 0.00 | 0.00 | 0.00 | 57 | 1013.8 |
| 20260506125638 | 57 | 353 | 0.9 | 5.2 | 0.00 | 0.00 | 0.00 | 57 | 1013.7 |
| 20260506125135 | 56 | 59 | 2.6 | 3.5 | 0.00 | 0.00 | 0.00 | 59 | 1014.0 |
| 20260506124633 | 56 | 11 | 0.9 | 3.5 | 0.00 | 0.00 | 0.00 | 60 | 1013.7 |
| 20260506124130 | 56 | 4 | 1.7 | 3.5 | 0.00 | 0.00 | 0.00 | 59 | 1014.0 |
| 20260506123628 | 55 | 57 | 2.6 | 4.3 | 0.00 | 0.00 | 0.00 | 59 | 1013.9 |
| 20260506123127 | 55 | 40 | 2.6 | 3.5 | 0.00 | 0.00 | 0.00 | 60 | 1013.6 |
| 20260506122623 | 55 | 22 | 1.7 | 2.6 | 0.00 | 0.00 | 0.00 | 60 | 1013.7 |
| 20260506122121 | 55 | 40 | 1.7 | 3.5 | 0.00 | 0.00 | 0.00 | 60 | 1013.6 |
| 20260506121618 | 55 | 23 | 2.6 | 3.5 | 0.00 | 0.00 | 0.00 | 61 | 1013.7 |
| 20260506121114 | 55 | 10 | 1.7 | 2.6 | 0.00 | 0.00 | 0.00 | 61 | 1013.7 |
| 20260506120613 | 55 | 43 | 1.7 | 2.6 | 0.00 | 0.00 | 0.00 | 61 | 1013.7 |
| 20260506120110 | 55 | 37 | 2.6 | 4.3 | 0.00 | 0.00 | 0.00 | 61 | 1013.7 |
| 20260506115608 | 54 | 9 | 0.9 | 2.6 | 0.00 | 0.00 | 0.00 | 62 | 1013.8 |
| 20260506115106 | 54 | 23 | 1.7 | 2.6 | 0.00 | 0.00 | 0.00 | 62 | 1013.8 |
| 20260506114603 | 54 | 29 | 1.7 | 2.6 | 0.00 | 0.00 | 0.00 | 62 | 1013.6 |
| 20260506114101 | 54 | 51 | 0.9 | 3.5 | 0.00 | 0.00 | 0.00 | 62 | 1013.6 |
| 20260506113558 | 54 | 51 | 3.5 | 5.2 | 0.00 | 0.00 | 0.00 | 61 | 1013.5 |
| 20260506113055 | 53 | 10 | 1.7 | 2.6 | 0.00 | 0.00 | 0.00 | 65 | 1013.6 |
| 20260506112552 | 53 | 22 | 1.7 | 2.6 | 0.00 | 0.00 | 0.00 | 65 | 1013.6 |
| 20260506112049 | 53 | 38 | 0.0 | 1.7 | 0.00 | 0.00 | 0.00 | 65 | 1013.5 |
| 20260506111547 | 53 | 44 | 0.0 | 2.6 | 0.00 | 0.00 | 0.00 | 65 | 1013.6 |
| 20260506111044 | 53 | 67 | 0.0 | 1.7 | 0.00 | 0.00 | 0.00 | 64 | 1013.3 |
| 20260506110542 | 53 | 37 | 0.0 | 1.7 | 0.00 | 0.00 | 0.00 | 64 | 1013.3 |
| 20260506110039 | 53 | 31 | 0.9 | 1.7 | 0.00 | 0.00 | 0.00 | 63 | 1013.4 |
| 20260506105535 | 54 | 61 | 1.7 | 1.7 | 0.00 | 0.00 | 0.00 | 64 | 1013.6 |
| 20260506105032 | 54 | 38 | 0.9 | 1.7 | 0.00 | 0.00 | 0.00 | 64 | 1013.3 |
| 20260506104530 | 54 | 19 | 0.0 | 1.7 | 0.00 | 0.00 | 0.00 | 63 | 1013.4 |
| 20260506104028 | 55 | 41 | 0.9 | 1.7 | 0.00 | 0.00 | 0.00 | 61 | 1013.5 |
| 20260506103525 | 55 | 43 | 2.6 | 3.5 | 0.00 | 0.00 | 0.00 | 61 | 1013.5 |
| 20260506103021 | 55 | 20 | 3.5 | 3.5 | 0.00 | 0.00 | 0.00 | 61 | 1013.5 |
| 20260506102520 | 55 | 44 | 2.6 | 3.5 | 0.00 | 0.00 | 0.00 | 60 | 1013.5 |
| 20260506102017 | 55 | 344 | 1.7 | 4.3 | 0.00 | 0.00 | 0.00 | 59 | 1013.5 |
| 20260506101513 | 54 | 11 | 1.7 | 2.6 | 0.00 | 0.00 | 0.00 | 64 | 1013.4 |
| 20260506101011 | 54 | 26 | 0.0 | 1.7 | 0.00 | 0.00 | 0.00 | 66 | 1013.3 |
| 20260506100509 | 54 | 47 | 0.9 | 1.7 | 0.00 | 0.00 | 0.00 | 64 | 1013.3 |
| 20260506100007 | 55 | 138 | 0.9 | 1.7 | 0.00 | 0.00 | 0.00 | 63 | 1013.4 |
| 20260506095505 | 56 | 64 | 0.9 | 1.7 | 0.00 | 0.00 | 0.00 | 60 | 1013.5 |
| 20260506095001 | 56 | 41 | 3.5 | 3.5 | 0.00 | 0.00 | 0.00 | 61 | 1013.4 |
| 20260506094459 | 56 | 53 | 2.6 | 5.2 | 0.00 | 0.00 | 0.00 | 59 | 1013.3 |
| 20260506093956 | 57 | 37 | 1.7 | 3.5 | 0.00 | 0.00 | 0.00 | 58 | 1013.4 |
| 20260506093455 | 57 | 25 | 3.5 | 3.5 | 0.00 | 0.00 | 0.00 | 57 | 1013.3 |
| 20260506092952 | 57 | 12 | 3.5 | 3.5 | 0.00 | 0.00 | 0.00 | 58 | 1013.5 |
| 20260506092450 | 57 | 13 | 2.6 | 4.3 | 0.00 | 0.00 | 0.00 | 57 | 1013.4 |
| 20260506091946 | 58 | 44 | 2.6 | 4.3 | 0.00 | 0.00 | 0.00 | 57 | 1013.4 |
| 20260506091445 | 58 | 12 | 1.7 | 3.5 | 0.00 | 0.00 | 0.00 | 55 | 1013.2 |
| 20260506090942 | 58 | 41 | 2.6 | 3.5 | 0.00 | 0.00 | 0.00 | 56 | 1013.4 |
| 20260506090440 | 58 | 16 | 3.5 | 5.2 | 0.00 | 0.00 | 0.00 | 56 | 1013.3 |
| 20260506085935 | 58 | 41 | 2.6 | 7.8 | 0.00 | 0.00 | 0.00 | 58 | 1013.3 |
| 20260506085432 | 57 | 29 | 1.7 | 5.2 | 0.00 | 0.00 | 0.00 | 58 | 1013.0 |
| 20260506084929 | 58 | 19 | 3.5 | 4.3 | 0.00 | 0.00 | 0.00 | 58 | 1013.3 |
| 20260506084426 | 58 | 14 | 3.5 | 3.5 | 0.00 | 0.00 | 0.00 | 56 | 1013.0 |
| 20260506083922 | 59 | 50 | 2.6 | 5.2 | 0.00 | 0.00 | 0.00 | 55 | 1013.3 |
| 20260506083419 | 59 | 5 | 2.6 | 5.2 | 0.00 | 0.00 | 0.00 | 55 | 1013.2 |
| 20260506082916 | 59 | 17 | 2.6 | 4.3 | 0.00 | 0.00 | 0.00 | 55 | 1012.9 |
| 20260506082414 | 60 | 19 | 2.6 | 3.5 | 0.00 | 0.00 | 0.00 | 54 | 1013.3 |
| 20260506081909 | 60 | 1 | 2.6 | 3.5 | 0.00 | 0.00 | 0.00 | 53 | 1013.2 |
| 20260506081408 | 60 | 14 | 2.6 | 3.5 | 0.00 | 0.00 | 0.00 | 53 | 1012.8 |
| 20260506080905 | 61 | 0 | 3.5 | 3.5 | 0.00 | 0.00 | 0.00 | 53 | 1013.3 |
| 20260506080402 | 61 | 351 | 1.7 | 5.2 | 0.00 | 0.00 | 0.00 | 52 | 1013.0 |
| 20260506073345 | 60 | 357 | 1.7 | 3.5 | 0.00 | 0.00 | 0.00 | 54 | 1012.8 |
| 20260506072842 | 61 | 349 | 1.7 | 2.6 | 0.00 | 0.00 | 0.00 | 53 | 1012.8 |
| 20260506072340 | 61 | 27 | 3.5 | 5.2 | 0.00 | 0.00 | 0.00 | 52 | 1012.9 |
| 20260506071837 | 62 | 12 | 2.6 | 3.5 | 0.00 | 0.00 | 0.00 | 52 | 1012.8 |
| 20260506071335 | 63 | 249 | 4.3 | 6.1 | 0.00 | 0.00 | 0.00 | 49 | 1012.7 |
| 20260506070832 | 63 | 307 | 3.5 | 5.2 | 0.00 | 0.00 | 0.00 | 50 | 1012.6 |
| 20260506070329 | 63 | 357 | 1.7 | 4.3 | 0.00 | 0.00 | 0.00 | 50 | 1013.0 |
| 20260506062306 | 65 | 15 | 1.7 | 4.3 | 0.00 | 0.00 | 0.00 | 47 | 1012.6 |
| 20260506061802 | 67 | 180 | 1.7 | 4.3 | 0.00 | 0.00 | 0.00 | 45 | 1012.5 |
| 20260506061259 | 67 | 330 | 3.5 | 5.2 | 0.00 | 0.00 | 0.00 | 46 | 1012.4 |
| 20260506060757 | 67 | 14 | 0.9 | 7.0 | 0.00 | 0.00 | 0.00 | 45 | 1012.3 |
| 20260506060255 | 66 | 350 | 1.7 | 5.2 | 0.00 | 0.00 | 0.00 | 47 | 1012.5 |
| 20260506051226 | 65 | 346 | 1.7 | 3.5 | 0.00 | 0.00 | 0.00 | 50 | 1012.0 |
| 20260506050724 | 65 | 341 | 0.0 | 3.5 | 0.00 | 0.00 | 0.00 | 50 | 1012.2 |
| 20260506050221 | 65 | 259 | 2.6 | 3.5 | 0.00 | 0.00 | 0.00 | 49 | 1012.1 |
| 20260506044712 | 66 | 348 | 0.0 | 2.6 | 0.00 | 0.00 | 0.00 | 47 | 1012.3 |
| 20260506044209 | 65 | 348 | 1.7 | 3.5 | 0.00 | 0.00 | 0.00 | 47 | 1012.1 |
| 20260506043706 | 65 | 304 | 0.0 | 1.7 | 0.00 | 0.00 | 0.00 | 48 | 1012.0 |
| 20260506043204 | 65 | 315 | 0.9 | 1.7 | 0.00 | 0.00 | 0.00 | 48 | 1012.1 |
| 20260506042703 | 65 | 235 | 0.0 | 1.7 | 0.00 | 0.00 | 0.00 | 48 | 1012.1 |
| 20260506042200 | 65 | 293 | 0.0 | 1.7 | 0.00 | 0.00 | 0.00 | 48 | 1011.8 |
| 20260506041653 | 65 | 309 | 0.0 | 2.6 | 0.00 | 0.00 | 0.00 | 48 | 1011.4 |
| 20260506041150 | 66 | 334 | 1.7 | 2.6 | 0.00 | 0.00 | 0.00 | 48 | 1011.6 |
| 20260506040647 | 66 | 348 | 1.7 | 2.6 | 0.00 | 0.00 | 0.00 | 48 | 1011.8 |
| 20260506040144 | 66 | 355 | 0.9 | 2.6 | 0.00 | 0.00 | 0.00 | 47 | 1011.8 |
| 20260506035641 | 66 | 357 | 1.7 | 2.6 | 0.00 | 0.00 | 0.00 | 46 | 1011.7 |
| 20260506035137 | 67 | 340 | 1.7 | 2.6 | 0.00 | 0.00 | 0.00 | 46 | 1011.4 |
| 20260506034634 | 68 | 355 | 1.7 | 3.5 | 0.00 | 0.00 | 0.00 | 45 | 1011.4 |
| 20260506034131 | 68 | 325 | 1.7 | 2.6 | 0.00 | 0.00 | 0.00 | 43 | 1011.0 |
| 20260506033628 | 69 | 343 | 0.9 | 2.6 | 0.00 | 0.00 | 0.00 | 42 | 1011.1 |
| 20260506033125 | 70 | 304 | 0.9 | 3.5 | 0.00 | 0.00 | 0.00 | 41 | 1010.9 |
| 20260506032623 | 71 | 281 | 1.7 | 1.7 | 0.00 | 0.00 | 0.00 | 39 | 1011.0 |
| 20260506032119 | 71 | 305 | 1.7 | 5.2 | 0.00 | 0.00 | 0.00 | 38 | 1010.7 |
| 20260506031617 | 71 | 325 | 1.7 | 3.5 | 0.00 | 0.00 | 0.00 | 38 | 1010.9 |
| 20260506031113 | 71 | 288 | 1.7 | 2.6 | 0.00 | 0.00 | 0.00 | 39 | 1010.8 |
| 20260506030612 | 71 | 285 | 1.7 | 2.6 | 0.00 | 0.00 | 0.00 | 38 | 1010.6 |
| 20260506030109 | 72 | 281 | 1.7 | 2.6 | 0.00 | 0.00 | 0.00 | 38 | 1010.6 |
| 20260506025606 | 72 | 325 | 1.7 | 2.6 | 0.00 | 0.00 | 0.00 | 37 | 1010.3 |
| 20260506025102 | 72 | 315 | 1.7 | 2.6 | 0.00 | 0.00 | 0.00 | 36 | 1010.5 |
| 20260506024600 | 72 | 258 | 2.6 | 3.5 | 0.00 | 0.00 | 0.00 | 36 | 1010.5 |
| 20260506024056 | 73 | 251 | 0.0 | 2.6 | 0.00 | 0.00 | 0.00 | 36 | 1010.4 |
| 20260506023552 | 74 | 304 | 1.7 | 2.6 | 0.00 | 0.00 | 0.00 | 34 | 1010.1 |
| 20260506023050 | 75 | 311 | 3.5 | 4.3 | 0.00 | 0.00 | 0.00 | 33 | 1010.4 |
| 20260506022547 | 75 | 307 | 1.7 | 3.5 | 0.00 | 0.00 | 0.00 | 33 | 1010.3 |
| 20260506022044 | 76 | 259 | 3.5 | 13.0 | 0.00 | 0.00 | 0.00 | 32 | 1010.2 |
| 20260506021542 | 76 | 247 | 3.5 | 3.5 | 0.00 | 0.00 | 0.00 | 32 | 1010.4 |
| 20260506021039 | 77 | 321 | 3.5 | 5.2 | 0.00 | 0.00 | 0.00 | 31 | 1010.2 |
| 20260506020536 | 77 | 282 | 2.6 | 4.3 | 0.00 | 0.00 | 0.00 | 31 | 1010.2 |
| 20260506020033 | 77 | 317 | 2.6 | 4.3 | 0.00 | 0.00 | 0.00 | 30 | 1010.0 |
| 20260506015531 | 77 | 239 | 1.7 | 7.8 | 0.00 | 0.00 | 0.00 | 29 | 1010.3 |
| 20260506015028 | 78 | 301 | 2.6 | 5.2 | 0.00 | 0.00 | 0.00 | 30 | 1010.1 |
| 20260506014525 | 78 | 253 | 5.2 | 6.1 | 0.00 | 0.00 | 0.00 | 31 | 1010.0 |
| 20260506014021 | 78 | 278 | 3.5 | 4.3 | 0.00 | 0.00 | 0.00 | 30 | 1010.1 |
| 20260506013519 | 78 | 337 | 1.7 | 5.2 | 0.00 | 0.00 | 0.00 | 30 | 1010.1 |
| 20260506013016 | 78 | 320 | 3.5 | 7.0 | 0.00 | 0.00 | 0.00 | 30 | 1009.7 |
| 20260506012512 | 79 | 316 | 1.7 | 7.8 | 0.00 | 0.00 | 0.00 | 29 | 1009.6 |
| 20260506012009 | 80 | 295 | 1.7 | 6.1 | 0.00 | 0.00 | 0.00 | 29 | 1010.0 |
| 20260506011506 | 80 | 282 | 0.9 | 12.2 | 0.00 | 0.00 | 0.00 | 27 | 1009.9 |
| 20260506011002 | 80 | 351 | 1.7 | 4.3 | 0.00 | 0.00 | 0.00 | 29 | 1009.6 |
| 20260506010502 | 80 | 310 | 1.7 | 6.1 | 0.00 | 0.00 | 0.00 | 29 | 1009.7 |
| 20260506005957 | 81 | 309 | 0.9 | 2.6 | 0.00 | 0.00 | 0.00 | 29 | 1009.9 |
| 20260506005455 | 81 | 271 | 2.6 | 4.3 | 0.00 | 0.00 | 0.00 | 28 | 1009.6 |
| 20260506004950 | 82 | 301 | 2.6 | 6.1 | 0.00 | 0.00 | 0.00 | 26 | 1009.4 |
| 20260506004449 | 83 | 282 | 2.6 | 8.7 | 0.00 | 0.00 | 0.00 | 25 | 1009.6 |
| 20260506003944 | 82 | 0 | 3.5 | 5.2 | 0.00 | 0.00 | 0.00 | 26 | 1009.6 |
| 20260506003441 | 84 | 304 | 2.6 | 7.8 | 0.00 | 0.00 | 0.00 | 25 | 1009.4 |
| 20260506002937 | 85 | 330 | 0.0 | 4.3 | 0.00 | 0.00 | 0.00 | 25 | 1009.6 |
| 20260506002433 | 86 | 2 | 0.9 | 3.5 | 0.00 | 0.00 | 0.00 | 25 | 1009.6 |
| 20260506001929 | 84 | 327 | 0.9 | 5.2 | 0.00 | 0.00 | 0.00 | 24 | 1009.4 |
| 20260506001426 | 84 | 226 | 3.5 | 6.1 | 0.00 | 0.00 | 0.00 | 25 | 1009.6 |
| 20260506000923 | 85 | 304 | 0.9 | 3.5 | 0.00 | 0.00 | 0.00 | 24 | 1009.7 |
| 20260506000423 | 84 | 338 | 2.6 | 5.2 | 0.00 | 0.00 | 0.00 | 24 | 1010.0 |
| 20260505235917 | 85 | 257 | 2.6 | 8.7 | 0.00 | 0.00 | 0.00 | 23 | 1009.9 |
| 20260505235416 | 84 | 56 | 0.0 | 1.7 | 0.00 | 0.00 | 0.00 | 24 | 1010.0 |
| 20260505234912 | 85 | 134 | 1.7 | 5.2 | 0.00 | 0.00 | 0.00 | 24 | 1010.1 |
| 20260505234410 | 86 | 71 | 0.9 | 2.6 | 0.00 | 0.00 | 0.00 | 24 | 1010.0 |
| 20260505233906 | 86 | 239 | 1.7 | 6.1 | 0.00 | 0.00 | 0.00 | 23 | 1010.0 |
| 20260505233404 | 86 | 299 | 2.6 | 3.5 | 0.00 | 0.00 | 0.00 | 26 | 1009.7 |
| 20260505232901 | 86 | 71 | 0.9 | 4.3 | 0.00 | 0.00 | 0.00 | 25 | 1010.0 |
| 20260505232359 | 86 | 320 | 0.0 | 4.3 | 0.00 | 0.00 | 0.00 | 23 | 1010.1 |
| 20260505231855 | 86 | 85 | 1.7 | 6.1 | 0.00 | 0.00 | 0.00 | 24 | 1010.0 |
| 20260505231353 | 87 | 321 | 1.7 | 4.3 | 0.00 | 0.00 | 0.00 | 24 | 1009.9 |
| 20260505230851 | 87 | 265 | 1.7 | 3.5 | 0.00 | 0.00 | 0.00 | 23 | 1010.0 |
| 20260505230348 | 85 | 281 | 1.7 | 6.1 | 0.00 | 0.00 | 0.00 | 25 | 1010.2 |
| 20260505225845 | 83 | 69 | 1.7 | 5.2 | 0.00 | 0.00 | 0.00 | 24 | 1010.1 |
| 20260505225342 | 86 | 188 | 2.6 | 6.1 | 0.00 | 0.00 | 0.00 | 23 | 1010.2 |
| 20260505224837 | 85 | 214 | 0.9 | 4.3 | 0.00 | 0.00 | 0.00 | 23 | 1010.2 |
| 20260505224335 | 86 | 241 | 1.7 | 6.1 | 0.00 | 0.00 | 0.00 | 23 | 1010.4 |
| 20260505223832 | 85 | 309 | 0.0 | 2.6 | 0.00 | 0.00 | 0.00 | 23 | 1010.3 |
| 20260505223329 | 86 | 231 | 3.5 | 6.1 | 0.00 | 0.00 | 0.00 | 23 | 1010.4 |
| 20260505222824 | 86 | 308 | 2.6 | 3.5 | 0.00 | 0.00 | 0.00 | 24 | 1010.2 |